This is the latest recevied weather packets stored in our database for station/object VK4AB-13. If no packets are shown the sender has not sent any weather packets the latest 10 day(s).
| Time | Temp. | Humidity | Pressure | Rain* | Wind** | Luminosity | Snow |
|---|---|---|---|---|---|---|---|
| 1778199522 | 18.89° C | 31% | 1020.4 hPa | 0 mm | - | 668 W/m² | - |
| 1778199221 | 18.89° C | 33% | 1020.5 hPa | 0 mm | - | 591 W/m² | - |
| 1778198921 | 18.89° C | 34% | 1020.6 hPa | 0 mm | - | 643 W/m² | - |
| 1778198621 | 18.33° C | 35% | 1020.6 hPa | 0 mm | - | 631 W/m² | - |
| 1778198321 | 18.33° C | 36% | 1020.7 hPa | 0 mm | - | 622 W/m² | - |
| 1778198021 | 17.78° C | 36% | 1020.6 hPa | 0 mm | - | 615 W/m² | - |
| 1778197721 | 17.78° C | 35% | 1020.7 hPa | 0 mm | - | 603 W/m² | - |
| 1778197421 | 17.78° C | 36% | 1020.8 hPa | 0 mm | - | 589 W/m² | - |
| 1778197122 | 17.22° C | 38% | 1020.8 hPa | 0 mm | - | 570 W/m² | - |
| 1778196822 | 16.67° C | 40% | 1020.9 hPa | 0 mm | - | 570 W/m² | - |
| 1778196522 | 16.67° C | 40% | 1020.9 hPa | 0 mm | - | 557 W/m² | - |
| 1778196221 | 16.11° C | 41% | 1020.9 hPa | 0 mm | - | 547 W/m² | - |
| 1778195921 | 16.11° C | 43% | 1021 hPa | 0 mm | - | 536 W/m² | - |
| 1778195622 | 15.56° C | 43% | 1020.8 hPa | 0 mm | - | 526 W/m² | - |
| 1778195322 | 15.56° C | 44% | 1020.8 hPa | 0 mm | - | 512 W/m² | - |
| 1778195022 | 15° C | 44% | 1021 hPa | 0 mm | - | 499 W/m² | - |
| 1778194722 | 15° C | 45% | 1020.9 hPa | 0 mm | - | 485 W/m² | - |
| 1778194422 | 14.44° C | 45% | 1020.8 hPa | 0 mm | - | 471 W/m² | - |
| 1778194121 | 14.44° C | 45% | 1020.9 hPa | 0 mm | - | 457 W/m² | - |
| 1778193822 | 14.44° C | 47% | 1021 hPa | 0 mm | - | 443 W/m² | - |
| 1778193522 | 13.89° C | 46% | 1021 hPa | 0 mm | - | 431 W/m² | - |
| 1778193222 | 13.89° C | 48% | 1021.1 hPa | 0 mm | - | 415 W/m² | - |
| 1778192922 | 13.89° C | 47% | 1021.1 hPa | 0 mm | - | 401 W/m² | - |
| 1778192622 | 13.33° C | 49% | 1021.1 hPa | 0 mm | - | 385 W/m² | - |
| 1778192322 | 13.33° C | 51% | 1020.9 hPa | 0 mm | - | 367 W/m² | - |
* Rain latest hour (hover to see other rain measurements)
** Current wind speed in m/s (hover to see current wind gust speed)